Regional Weather Roundup
Issued by NWS

Home | Current Version | Previous Version | Graphics & Text | Print | Product List | Glossary Off
Versions: 1 2 3 4 5 6 7 8 9 10 11 12 13 14 15 16 17 18 19 20 21 22 23 24 25 26 27 28 29 30 31 32 33 34 35 36 37 38 39 40 41 42 43 44 45 46 47 48 49 50

000
ASUS43 KBIS 311720
RWRND

NORTH DAKOTA REGIONAL WEATHER ROUNDUP
NATIONAL WEATHER SERVICE BISMARCK ND
1200 PM CDT FRI OCT 31 2014

NOTE: "FAIR" INDICATES FEW OR NO CLOUDS BELOW 12,000 FEET WITH NO
SIGNIFICANT WEATHER AND/OR OBSTRUCTIONS TO VISIBILITY.


NDZ001>003-009>011-017-311800-
NORTHWEST NORTH DAKOTA

CITY           SKY/WX    TMP DP  RH WIND       PRES   REMARKS
WILLISTON      PTSUNNY   36  27  69 SE16G25   30.21F
MINOT          MOSUNNY   32  20  61 SE18G29   30.38F
MINOT AFB      MOSUNNY   32  23  68 S22G30    30.37F WCI  20
$$

NDZ018>021-031>035-040>046-311800-
SOUTHWEST NORTH DAKOTA

CITY           SKY/WX    TMP DP  RH WIND       PRES   REMARKS
BISMARCK       MOSUNNY   31  22  69 S18       30.47F WCI  19
DICKINSON      PTSUNNY   32  22  66 S26G32    30.24F WCI  18
GARRISON         N/A     31  24  75 S20G29    30.38F WCI  19
HETTINGER ARPT PTSUNNY   31  24  75 SE23G30   30.29F WCI  18
$$

NDZ004>008-012>016-024-026-027-054-311800-
NORTHEAST NORTH DAKOTA

CITY           SKY/WX    TMP DP  RH WIND       PRES   REMARKS
GRAND FORKS    MOSUNNY   32  21  64 SE10      30.57F
GRND FRKS AFB  SUNNY     33  20  58 S10       30.56F
DEVILS LAKE    SUNNY     30  16  55 S12       30.47F
$$

NDZ022-023-025-028>030-036>039-047>053-311800-
SOUTHEAST NORTH DAKOTA

CITY           SKY/WX    TMP DP  RH WIND       PRES   REMARKS
FARGO          SUNNY     32  22  66 SE7       30.59F
JAMESTOWN      SUNNY     30  19  63 S14       30.53F WCI  19
$$




USA.gov is the U.S. government's official web portal to all federal, state and local government web resources and services.